Lumberton, NJ

4:55 AM EDT on July 25, 2016 (GMT -0400)
South Jersey Regional

Weather History for KVAY - December, 2013

Change the Weather History Date:

Friday, December 6, 2013

  Actual Average (KWRI) Record (KWRI)
Temperature  
Mean Temperature 50 °F -  
Max Temperature 63 °F 47 °F 73 °F (2001)
Min Temperature 37 °F 30 °F 15 °F (2002)
Degree Days  
Heating Degree Days 15    
Moisture  
Dew Point 48 °F    
Average Humidity 91    
Maximum Humidity 96    
Minimum Humidity 85    
Precipitation  
Precipitation 0.64 in - - ()
Sea Level Pressure  
Sea Level Pressure 30.00 in    
Wind  
Wind Speed 7 mph (NNW)    
Max Wind Speed 14 mph    
Max Gust Speed 25 mph    
Visibility 5 miles    
Events Rain    
Averages and records for this station are not official NWS values.
T = Trace of Precipitation, MM = Missing Value Source: NWS Daily Summary

Daily Weather History Graph

Daily Weather History Graph

Search for Another Location

Airport or City:

Trip Planner

Search our weather history database for the weather conditions in past years. The results will help you decide how hot, cold, wet, or windy it might be!

Date:

Astronomy

Dec. 06, 2013 Rise Set
Actual Time 7:06 AM EST 4:34 PM EST
Civil Twilight 6:36 AM EST 5:04 PM EST
Nautical Twilight 6:02 AM EST 5:38 PM EST
Astronomical Twilight 5:30 AM EST 6:10 PM EST
Moon 10:10 AM EST (12/6) 9:02 PM EST (12/6)
Length of Visible Light 10h 27m
Length of Day
9h 27m
Waxing Crescent, 19% of the Moon is Illuminated
Dec 6
Waxing Crescent
Dec 9
First Quarter
Dec 17
Full
Dec 25
Last Quarter
Jan 1
New

Hourly Weather History & Observations

Time (EST) Temp. Windchill Dew Point Humidity Pressure Visibility Wind Dir Wind Speed Gust Speed Precip Events Conditions
12:13 AM 59.0 °F - 57.9 °F 96% 29.94 in 2.0 mi South 4.6 mph - N/A   Overcast
12:38 AM 60.1 °F - 59.0 °F 96% 29.94 in 2.0 mi Variable 4.6 mph - N/A   Overcast
12:54 AM 60.1 °F - 59.0 °F 96% 29.94 in 1.5 mi South 5.8 mph - N/A   Overcast
1:07 AM 60.1 °F - 59.0 °F 96% 29.94 in 2.0 mi South 4.6 mph - N/A   Overcast
1:26 AM 61.0 °F - 59.0 °F 93% 29.93 in 3.0 mi South 4.6 mph - N/A   Overcast
1:54 AM 61.0 °F - 59.0 °F 93% 29.93 in 4.0 mi SSW 6.9 mph - N/A   Overcast
2:54 AM 61.0 °F - 59.0 °F 93% 29.91 in 6.0 mi SSW 6.9 mph - 0.00 in Rain Light Rain
3:04 AM 62.1 °F - 59.0 °F 90% 29.91 in 5.0 mi SSW 8.1 mph - 0.01 in Rain Light Rain
3:40 AM 61.0 °F - 59.0 °F 93% 29.88 in 6.0 mi Variable 6.9 mph - 0.01 in   Overcast
3:49 AM 62.6 °F - 59.0 °F 88% 29.88 in 6.0 mi SSW 5.8 mph - 0.01 in   Overcast
3:54 AM 62.1 °F - 60.1 °F 93% 29.89 in 6.0 mi SSW 6.9 mph - 0.01 in   Overcast
4:54 AM 63.0 °F - 60.1 °F 90% 29.89 in 7.0 mi SSW 6.9 mph - N/A   Overcast
5:20 AM 62.1 °F - 60.1 °F 93% 29.90 in 1.8 mi SSW 9.2 mph - 0.08 in Rain Heavy Rain
5:31 AM 62.1 °F - 60.1 °F 93% 29.89 in 2.0 mi SW 6.9 mph - 0.13 in Rain Heavy Rain
5:36 AM 62.1 °F - 60.1 °F 93% 29.89 in 3.0 mi SSW 3.5 mph - 0.14 in Rain Light Rain
5:45 AM 62.1 °F - 60.1 °F 93% 29.89 in 6.0 mi SSW 5.8 mph - 0.14 in Rain Light Rain
5:54 AM 62.1 °F - 60.1 °F 93% 29.90 in 8.0 mi Variable 4.6 mph - 0.14 in   Overcast
6:54 AM 62.1 °F - 60.1 °F 93% 29.92 in 4.0 mi SSW 8.1 mph - 0.00 in Rain Light Rain
7:39 AM 62.1 °F - 60.1 °F 93% 29.92 in 2.0 mi SW 4.6 mph - 0.01 in   Overcast
7:47 AM 62.1 °F - 61.0 °F 96% 29.93 in 1.8 mi SW 5.8 mph - 0.01 in   Overcast
8:05 AM 62.1 °F - 61.0 °F 96% 29.95 in 1.0 mi WNW 6.9 mph - 0.02 in Rain Rain
8:16 AM 54.0 °F - 52.0 °F 93% 29.97 in 1.5 mi NNW 10.4 mph 25.3 mph 0.03 in Rain Light Rain
8:29 AM 52.0 °F - 50.0 °F 93% 29.99 in 2.5 mi NNW 12.7 mph 19.6 mph 0.03 in Rain Light Rain
8:44 AM 52.0 °F - 50.0 °F 93% 29.99 in 3.0 mi North 13.8 mph - 0.03 in Rain Light Rain
8:54 AM 51.1 °F - 48.0 °F 89% 29.98 in 10.0 mi North 10.4 mph - 0.04 in Rain Light Rain
9:03 AM 50.0 °F - 48.0 °F 93% 30.00 in 7.0 mi North 11.5 mph - 0.00 in Rain Rain
9:54 AM 48.9 °F - 46.0 °F 90% 30.03 in 10.0 mi NNW 11.5 mph - 0.01 in Rain Light Rain
10:54 AM 48.0 °F - 44.1 °F 86% 30.06 in 10.0 mi NNW 12.7 mph 17.3 mph 0.00 in   Overcast
11:54 AM 46.9 °F - 43.0 °F 86% 30.04 in 10.0 mi North 10.4 mph - N/A   Overcast
12:33 PM 46.9 °F - 43.0 °F 86% 30.04 in 9.0 mi NNW 9.2 mph - N/A   Overcast
12:45 PM 46.9 °F - 43.0 °F 86% 30.04 in 10.0 mi North 10.4 mph - N/A   Overcast
12:54 PM 46.9 °F - 44.1 °F 90% 30.04 in 9.0 mi North 9.2 mph - 0.00 in Rain Light Rain
1:20 PM 46.0 °F 41.0 °F 44.1 °F 93% 30.04 in 10.0 mi North 10.4 mph - 0.00 in   Overcast
1:37 PM 46.9 °F - 44.1 °F 90% 30.02 in 9.0 mi NNE 9.2 mph - 0.00 in Rain Light Rain
1:54 PM 46.0 °F 41.9 °F 43.0 °F 89% 30.01 in 8.0 mi NNE 8.1 mph - 0.01 in Rain Light Rain
2:15 PM 46.0 °F 40.2 °F 42.1 °F 86% 30.02 in 10.0 mi North 12.7 mph - 0.01 in Rain Light Rain
2:23 PM 45.0 °F 39.3 °F 41.0 °F 86% 30.03 in 10.0 mi NNE 11.5 mph - 0.01 in Rain Light Rain
2:54 PM 44.1 °F 39.0 °F 39.9 °F 85% 30.04 in 10.0 mi North 9.2 mph - 0.03 in Rain Light Rain
3:54 PM 44.1 °F 40.8 °F 41.0 °F 89% 30.04 in 10.0 mi North 5.8 mph - 0.00 in   Overcast
4:28 PM 44.1 °F 39.5 °F 41.0 °F 89% 30.05 in 6.0 mi North 8.1 mph - 0.02 in Rain Light Rain
4:54 PM 43.0 °F 37.7 °F 39.0 °F 86% 30.06 in 10.0 mi North 9.2 mph - 0.02 in Rain Light Rain
5:14 PM 43.0 °F 39.5 °F 39.9 °F 89% 30.08 in 2.0 mi North 5.8 mph - 0.06 in Rain Heavy Rain
5:26 PM 43.0 °F 37.7 °F 39.0 °F 86% 30.07 in 5.0 mi North 9.2 mph - 0.09 in Rain Rain
5:54 PM 42.1 °F 35.7 °F 39.0 °F 89% 30.08 in 5.0 mi North 11.5 mph - 0.11 in Rain Light Rain
6:17 PM 41.0 °F 34.3 °F 37.9 °F 89% 30.08 in 5.0 mi North 11.5 mph - 0.01 in Rain Light Rain
6:54 PM 39.9 °F 34.5 °F 37.9 °F 93% 30.09 in 3.0 mi NNE 8.1 mph - 0.03 in Rain Rain
7:10 PM 41.0 °F 36.4 °F 39.0 °F 93% 30.09 in 3.0 mi NNW 6.9 mph - 0.01 in Rain Light Rain
7:18 PM 39.9 °F 33.4 °F 37.9 °F 93% 30.09 in 3.0 mi North 10.4 mph - 0.01 in Rain Light Rain
7:54 PM 39.0 °F 31.8 °F 37.0 °F 93% 30.11 in 4.0 mi NNW 11.5 mph - 0.03 in Rain Light Rain
8:54 PM 37.9 °F 30.9 °F 36.0 °F 93% 30.12 in 3.0 mi North 10.4 mph - 0.04 in Rain Rain
9:54 PM 39.0 °F 32.8 °F 37.0 °F 93% 30.11 in 6.0 mi North 9.2 mph - 0.02 in Rain Light Rain
10:54 PM 39.0 °F 32.3 °F 37.0 °F 93% 30.13 in 4.0 mi NNW 10.4 mph - 0.05 in Rain Light Rain
11:14 PM 37.9 °F 30.5 °F 36.0 °F 93% 30.14 in 2.5 mi North 11.5 mph - 0.03 in Rain Heavy Rain
11:26 PM 37.9 °F 30.5 °F 36.0 °F 93% 30.15 in 3.0 mi NNW 11.5 mph - 0.05 in Rain Rain
11:54 PM 37.9 °F 31.5 °F 36.0 °F 93% 30.13 in 6.0 mi North 9.2 mph - 0.10 in Rain Light Rain